Date,TemperatureHighF,TemperatureAvgF,TemperatureLowF,DewpointHighF,DewpointAvgF,DewpointLowF,HumidityHigh,HumidityAvg,HumidityLow,PressureMaxIn,PressureMinIn,WindSpeedMaxMPH,WindSpeedAvgMPH,GustSpeedMaxMPH,PrecipitationSumIn
2012-1-1,81,66,54,61,57,52,96,76,40,0.00,40.00,7,5,0,0.00
2012-1-2,70,59,44,63,50,31,96,77,30,0.00,40.00,12,7,0,0.00
2012-1-3,50,43,34,40,22,10,91,49,20,0.00,40.00,17,9,0,0.00
2012-1-4,59,44,32,35,27,22,82,54,25,0.00,40.00,9,6,0,0.00
2012-1-5,69,50,28,49,41,26,94,73,45,0.00,40.00,11,6,0,0.00
2012-1-6,72,56,41,59,49,41,98,80,45,0.00,40.00,6,4,0,0.00
2012-1-7,76,59,45,59,50,44,98,75,37,0.00,40.00,7,4,0,0.00
2012-1-8,78,61,46,57,51,46,97,73,41,0.00,40.00,7,4,0,0.00
2012-1-9,78,64,52,63,57,52,98,79,47,0.00,40.00,8,4,0,0.00
2012-1-10,78,66,56,63,58,54,97,77,49,0.00,40.00,11,5,0,0.00
2012-1-11,75,66,60,67,62,58,95,87,72,0.00,40.00,16,8,0,0.00
2012-1-12,80,66,57,64,58,54,98,79,41,0.00,40.00,12,6,0,0.00
2012-1-13,66,58,48,60,44,30,94,62,27,0.00,40.00,10,7,0,0.00
2012-1-14,61,49,40,42,32,23,86,56,23,0.00,40.00,14,7,0,0.00
2012-1-15,69,52,35,46,38,32,94,64,26,0.00,40.00,11,6,0,0.00
2012-1-16,72,58,46,54,48,41,91,72,49,0.00,40.00,14,8,0,0.00
2012-1-17,78,63,50,59,54,48,96,75,47,0.00,40.00,13,5,0,0.00
2012-1-18,77,63,51,63,58,51,97,84,52,0.00,40.00,14,5,0,0.08
2012-1-19,71,60,50,62,45,28,95,65,20,0.00,40.00,10,6,0,0.00
2012-1-20,77,62,47,56,51,44,94,70,40,0.00,40.00,12,6,0,0.00
2012-1-21,80,64,50,59,55,49,97,73,41,0.00,40.00,12,5,0,0.00
2012-1-22,78,63,48,63,55,48,98,77,42,0.00,40.00,7,3,0,0.00
2012-1-23,82,68,57,67,62,56,98,81,49,0.00,40.00,9,5,0,0.00
2012-1-24,82,69,58,67,62,57,98,80,50,0.00,40.00,9,4,0,0.00
2012-1-25,82,70,61,68,62,57,98,79,43,0.00,40.00,12,6,0,0.00
2012-1-26,82,71,62,68,63,60,97,78,51,0.00,40.00,15,7,0,0.00
2012-1-27,72,67,60,68,65,58,97,91,83,0.00,40.00,14,7,0,0.11
2012-1-28,72,61,52,58,54,51,98,81,51,0.00,40.00,10,5,0,0.00
2012-1-29,74,62,55,56,52,44,95,72,34,0.00,40.00,11,6,0,0.00
2012-1-30,73,61,52,54,50,47,93,70,41,0.00,40.00,16,10,0,0.00
2012-1-31,77,64,53,58,54,51,93,74,43,0.00,40.00,12,8,0,0.00
2012-2-1,80,66,56,62,58,55,97,77,45,0.00,40.00,10,5,0,0.00
2012-2-2,81,68,58,68,61,57,98,81,50,0.00,40.00,7,4,0,0.00
2012-2-3,75,68,62,66,63,60,96,85,65,0.00,40.00,12,8,0,0.00
2012-2-4,81,70,63,65,62,60,94,78,50,0.00,40.00,12,7,0,0.00
2012-2-5,82,71,63,69,64,62,98,81,49,0.00,40.00,10,4,0,0.00
2012-2-6,81,69,64,70,66,63,98,89,63,0.00,40.00,15,5,0,0.00
2012-2-7,73,68,63,68,66,62,98,94,85,0.00,40.00,10,6,0,0.00
2012-2-8,79,66,59,63,58,51,97,77,49,0.00,40.00,11,7,0,0.00
2012-2-9,74,64,54,61,56,52,92,77,61,0.00,40.00,13,7,0,0.00
2012-2-10,82,68,58,69,63,57,97,84,61,0.00,40.00,11,5,0,0.82
2012-2-11,68,59,50,64,52,36,98,78,52,0.00,40.00,16,10,0,0.00
2012-2-12,53,44,33,36,26,19,83,50,30,0.00,40.00,15,9,0,0.00
2012-2-13,67,51,37,50,39,24,86,64,41,0.00,40.00,10,6,0,0.00
2012-2-14,78,64,50,57,53,48,95,71,41,0.00,40.00,12,6,0,0.00
2012-2-15,82,69,54,62,57,53,95,69,40,0.00,40.00,8,4,0,0.00
2012-2-16,84,71,61,65,61,58,93,73,42,0.00,40.00,14,6,0,0.00
2012-2-17,78,68,62,68,64,60,97,89,64,0.00,40.00,8,4,0,0.00
2012-2-18,78,69,61,68,64,60,98,87,63,0.00,40.00,7,3,0,0.00
2012-2-19,82,71,62,72,66,56,97,84,65,0.00,40.00,18,11,0,0.00
2012-2-20,70,60,53,56,51,47,93,73,43,0.00,40.00,12,8,0,0.00
2012-2-21,78,64,50,58,52,49,96,71,36,0.00,40.00,10,6,0,0.00
2012-2-22,81,70,60,65,60,56,89,71,50,0.00,40.00,10,6,0,0.00
2012-2-23,85,72,65,69,65,61,98,79,44,0.00,40.00,12,8,0,0.00
2012-2-24,88,74,65,69,65,61,98,76,40,0.00,40.00,15,9,0,0.00
2012-2-25,72,66,58,69,51,36,98,62,33,0.00,40.00,12,9,0,0.00
2012-2-26,69,64,58,63,54,42,93,71,55,0.00,40.00,13,9,0,0.00
2012-2-27,84,72,64,71,66,63,97,84,53,0.00,40.00,10,6,0,1.78
2012-2-28,82,70,63,69,65,62,99,86,53,0.00,40.00,11,6,0,0.00
2012-2-29,85,72,63,69,65,62,98,80,46,0.00,40.00,8,5,0,0.22
2012-3-1,86,74,66,70,66,62,97,79,45,0.00,40.00,10,6,0,0.00
2012-3-2,85,73,63,69,64,57,98,77,38,0.00,40.00,10,6,0,0.00
2012-3-3,87,75,68,72,66,58,97,76,41,0.00,40.00,18,10,0,0.00
2012-3-4,75,64,49,71,48,25,94,62,21,0.00,40.00,19,13,0,0.00
2012-3-5,75,59,45,45,35,25,71,45,18,0.00,40.00,10,5,0,0.00
2012-3-6,76,63,52,56,52,45,90,69,41,0.00,40.00,19,9,0,0.00
2012-3-7,80,68,58,62,58,54,92,72,42,0.00,40.00,15,9,0,0.00
2012-3-8,82,71,62,67,64,61,97,81,50,0.00,40.00,14,8,0,0.00
2012-3-9,83,72,65,69,66,62,96,82,50,0.00,40.00,11,5,0,0.00
2012-3-10,82,71,65,68,66,64,98,86,55,0.00,40.00,13,7,0,0.00
2012-3-11,77,68,65,68,65,-100,97,92,67,0.00,40.00,11,8,0,0.77
2012-3-12,79,70,62,65,61,57,97,76,50,0.00,40.00,14,8,0,0.00
2012-3-13,81,69,60,65,60,58,97,75,47,0.00,40.00,11,6,0,0.00
2012-3-14,82,70,60,66,61,59,97,75,45,0.00,40.00,12,7,0,0.00
2012-3-15,82,71,63,67,63,60,96,77,46,0.00,40.00,14,8,0,0.00
2012-3-16,83,71,63,67,62,57,97,75,42,0.00,40.00,12,6,0,0.00
2012-3-17,82,70,60,66,59,52,97,71,36,0.00,40.00,12,6,0,0.00
2012-3-18,82,70,60,67,60,55,97,74,39,0.00,40.00,14,6,0,0.00
2012-3-19,83,70,59,65,60,57,96,73,41,0.00,40.00,12,6,0,0.00
2012-3-20,83,70,61,66,59,-100,96,72,42,0.00,40.00,14,7,0,0.00
2012-3-21,81,72,64,69,66,61,97,82,62,0.00,40.00,16,8,0,0.00
2012-3-22,85,74,65,69,63,-100,97,74,42,0.00,40.00,13,0,0,0.00
2012-3-23,85,74,63,67,63,58,96,72,39,0.00,40.00,9,5,0,0.00
2012-3-24,85,72,64,69,65,62,96,79,47,0.00,40.00,10,6,0,0.03
2012-3-25,83,72,62,69,61,47,96,73,30,0.00,40.00,14,8,0,0.00
2012-3-26,83,69,58,63,54,48,96,64,30,0.00,40.00,9,6,0,0.00
2012-3-27,84,70,57,64,56,46,96,67,26,0.00,40.00,14,7,0,0.00
2012-3-28,83,72,61,63,60,54,93,68,36,0.00,40.00,12,6,0,0.00
2012-3-29,85,72,59,66,59,52,96,68,32,0.00,40.00,9,5,0,0.00
2012-3-30,85,73,61,63,60,54,93,66,36,0.00,40.00,12,6,0,0.00
2012-3-31,85,72,64,69,65,61,93,80,50,0.00,40.00,16,7,0,0.14
2012-4-1,87,74,62,69,64,58,97,75,37,0.00,40.00,9,5,0,0.00
2012-4-2,88,73,62,69,63,58,98,76,36,0.00,40.00,9,4,0,0.00
2012-4-3,92,76,64,69,61,49,97,67,23,0.00,40.00,8,4,0,0.00
2012-4-4,90,75,62,69,63,59,95,70,35,0.00,40.00,14,6,0,0.00
2012-4-5,86,74,66,70,65,59,96,76,43,0.00,40.00,13,6,0,0.36
2012-4-6,85,74,65,70,63,49,96,71,33,0.00,40.00,17,9,0,0.00
2012-4-7,80,69,59,60,56,51,89,66,43,0.00,40.00,15,10,0,0.00
2012-4-8,81,69,57,57,54,53,89,63,38,0.00,40.00,9,7,0,0.00
2012-4-9,84,70,55,62,56,51,95,64,32,0.00,40.00,9,4,0,0.00
2012-4-10,85,72,60,63,58,53,93,64,33,0.00,40.00,8,5,0,0.00
2012-4-11,85,73,61,66,59,51,95,66,32,0.00,40.00,8,5,0,0.00
2012-4-12,85,72,60,61,56,44,94,62,25,0.00,40.00,12,6,0,0.00
2012-4-13,84,73,64,66,61,54,95,69,34,0.00,40.00,12,6,0,0.00
2012-4-14,77,70,66,65,63,61,93,77,60,0.00,40.00,16,9,0,0.00
2012-4-15,83,72,61,61,58,-100,88,65,38,0.00,40.00,14,8,0,0.00
2012-4-16,84,73,63,65,59,53,89,65,34,0.00,40.00,13,7,0,0.00
2012-4-17,84,72,59,63,60,56,94,68,40,0.00,40.00,12,7,0,0.00
2012-4-18,85,74,62,66,62,57,93,67,41,0.00,40.00,10,6,0,0.00
2012-4-19,85,73,67,70,67,64,95,81,51,0.00,40.00,12,5,0,0.00
2012-4-20,88,73,67,72,67,62,97,83,49,0.00,40.00,11,6,0,0.00
2012-4-21,79,70,64,68,66,62,96,87,63,0.00,40.00,15,8,0,0.14
2012-4-22,81,69,60,66,61,-100,97,80,53,0.00,40.00,16,8,0,0.38
2012-4-23,75,64,52,59,48,42,89,59,31,0.00,40.00,17,9,0,0.00
2012-4-24,74,61,47,48,38,29,90,48,20,0.00,40.00,11,7,0,0.00
2012-4-25,82,64,46,55,46,41,93,56,23,0.00,40.00,7,4,0,0.00
2012-4-26,86,71,55,62,56,52,95,65,32,0.00,40.00,9,5,0,0.00
2012-4-27,87,73,55,65,59,48,97,67,27,0.00,40.00,12,5,0,0.00
2012-4-28,88,75,63,71,66,61,96,75,46,0.00,40.00,15,6,0,0.00
2012-4-29,85,73,68,72,68,-100,97,84,54,0.00,40.00,14,7,0,0.00
2012-4-30,85,75,68,71,67,63,97,76,49,0.00,40.00,18,10,0,0.00
2012-5-1,86,77,68,70,66,62,94,72,49,0.00,40.00,16,10,0,0.00
2012-5-2,89,77,68,71,67,65,96,75,46,0.00,40.00,13,8,0,0.00
2012-5-3,89,77,67,70,67,61,97,73,39,0.00,40.00,13,8,0,0.00
2012-5-4,87,76,66,71,66,62,96,73,45,0.00,40.00,9,5,0,0.00
2012-5-5,91,79,67,69,65,59,95,67,37,0.00,40.00,10,5,0,0.00
2012-5-6,91,77,68,74,66,-100,97,74,38,0.00,40.00,12,5,0,0.00
2012-5-7,92,76,66,71,67,58,96,76,33,0.00,40.00,14,5,0,0.44
2012-5-8,90,76,66,71,67,60,96,76,36,0.00,40.00,9,5,0,0.00
2012-5-9,91,78,69,73,68,66,97,74,44,0.00,40.00,14,7,0,0.00
2012-5-10,90,78,68,70,67,61,97,72,43,0.00,40.00,9,5,0,0.00
2012-5-11,86,77,68,69,65,59,94,69,48,0.00,40.00,15,8,0,0.00
2012-5-12,86,76,65,69,64,61,94,69,45,0.00,40.00,14,8,0,0.00
2012-5-13,85,75,64,68,64,-100,88,71,52,0.00,40.00,12,7,0,0.00
2012-5-14,88,77,71,71,68,64,93,76,47,0.00,40.00,13,5,0,0.03
2012-5-15,90,75,69,72,70,68,97,84,49,0.00,40.00,17,4,0,0.14
2012-5-16,80,72,67,73,69,66,97,91,73,0.00,40.00,9,4,0,2.17
2012-5-17,89,77,69,72,69,66,97,79,48,0.00,40.00,9,5,0,0.00
2012-5-18,90,77,66,71,66,61,96,72,37,0.00,40.00,12,6,0,0.00
2012-5-19,88,76,69,71,68,61,97,77,40,0.00,40.00,13,7,0,0.00
2012-5-20,89,77,68,69,63,-100,95,69,27,0.00,40.00,11,7,0,0.00
2012-5-21,89,77,61,68,58,48,96,58,25,0.00,40.00,8,4,0,0.00
2012-5-22,93,79,65,70,61,48,94,60,21,0.00,40.00,15,5,0,0.00
2012-5-23,91,79,69,71,68,61,96,72,37,0.00,40.00,14,6,0,0.00
2012-5-24,90,79,70,73,71,69,98,77,49,0.00,40.00,14,7,0,0.00
2012-5-25,92,80,72,74,71,68,97,75,47,0.00,40.00,15,7,0,0.00
2012-5-26,92,80,69,74,68,62,98,71,37,0.00,40.00,12,6,0,0.00
2012-5-27,89,76,69,74,69,-100,96,82,49,0.00,40.00,20,7,0,3.45
2012-5-28,91,80,71,76,71,63,96,75,42,0.00,40.00,13,9,0,0.00
2012-5-29,89,79,72,75,72,69,96,80,51,0.00,40.00,12,7,0,0.00
2012-5-30,92,82,73,76,73,71,97,77,52,0.00,40.00,12,8,0,0.00
2012-5-31,92,80,72,77,72,68,98,79,46,0.00,40.00,11,5,0,0.00
2012-6-1,81,74,68,73,71,68,99,92,73,0.00,40.00,9,5,0,1.97
2012-6-2,90,79,71,76,72,69,100,80,50,0.00,40.00,12,7,0,0.00
2012-6-3,91,79,68,72,67,-100,98,71,43,0.00,40.00,8,5,0,0.00
2012-6-4,90,80,67,74,70,65,96,72,46,0.00,40.00,14,7,0,0.00
2012-6-5,87,79,73,76,74,71,98,85,58,0.00,40.00,13,7,0,0.00
2012-6-6,87,76,71,76,72,69,95,85,67,0.00,40.00,14,6,0,0.00
2012-6-7,81,75,70,78,73,69,98,94,89,0.00,40.00,10,4,0,1.43
2012-6-8,87,75,72,77,73,71,99,93,69,0.00,40.00,14,4,0,3.36
2012-6-9,93,78,72,76,73,71,99,85,54,0.00,40.00,12,6,0,0.64
2012-6-10,93,80,71,78,72,-100,98,82,49,0.00,40.00,12,7,0,0.93
2012-6-11,91,80,69,76,72,69,97,80,54,0.00,40.00,9,6,0,0.00
2012-6-12,92,83,74,73,71,68,93,69,48,0.00,40.00,16,5,0,0.03
2012-6-13,93,81,70,76,72,69,96,76,46,0.00,40.00,12,6,0,0.00
2012-6-14,91,78,71,75,72,69,97,82,54,0.00,40.00,17,5,0,0.00
2012-6-15,89,78,69,75,71,63,99,81,45,0.00,40.00,16,7,0,0.00
2012-6-16,88,79,71,73,69,61,97,74,40,0.00,40.00,15,9,0,0.00
2012-6-17,87,77,68,71,65,-100,95,70,43,0.00,40.00,14,8,0,0.00
2012-6-18,87,77,64,70,66,63,97,70,43,0.00,40.00,12,7,0,0.00
2012-6-19,87,77,69,71,67,62,94,73,45,0.00,40.00,15,8,0,0.00
2012-6-20,83,77,73,77,72,69,97,86,74,0.00,40.00,15,8,0,0.00
2012-6-21,87,77,72,77,74,71,98,89,63,0.00,40.00,12,6,0,0.30
2012-6-22,89,77,73,77,74,72,99,90,60,0.00,40.00,9,5,0,2.82
2012-6-23,81,77,73,77,75,73,99,93,82,0.00,40.00,13,6,0,0.09
2012-6-24,79,76,73,77,74,71,98,96,93,0.00,40.00,20,13,0,1.70
2012-6-25,81,78,73,76,75,73,97,90,79,0.00,40.00,20,15,0,2.74
2012-6-26,84,79,74,78,76,72,96,90,77,0.00,40.00,22,15,0,0.74
2012-6-27,89,79,73,76,74,70,95,84,62,0.00,40.00,19,10,0,0.00
2012-6-28,90,79,67,70,66,61,93,66,42,0.00,40.00,8,4,0,0.00
2012-6-29,92,80,67,75,70,66,98,74,44,0.00,40.00,7,4,0,0.00
2012-6-30,91,82,69,75,71,68,98,73,51,0.00,40.00,10,6,0,0.00
2012-7-1,93,81,69,76,72,69,98,76,48,0.00,40.00,8,5,0,0.00
2012-7-2,95,82,70,77,73,68,98,77,49,0.00,40.00,15,5,0,0.30
2012-7-3,93,80,69,76,72,68,97,79,49,0.00,40.00,7,4,0,0.00
2012-7-4,93,80,73,78,73,70,97,80,50,0.00,40.00,10,4,0,0.08
2012-7-5,93,81,70,75,71,67,98,75,43,0.00,40.00,13,4,0,0.00
2012-7-6,93,82,73,75,72,68,95,74,45,0.00,40.00,14,4,0,0.00
2012-7-7,94,82,71,76,72,66,98,73,45,0.00,40.00,13,4,0,0.00
2012-7-8,95,84,73,77,73,68,97,71,42,0.00,40.00,12,6,0,0.00
2012-7-9,94,83,72,75,72,67,97,72,42,0.00,40.00,12,5,0,0.00
2012-7-10,91,80,72,76,73,69,97,80,55,0.00,40.00,14,5,0,0.03
2012-7-11,86,77,72,77,74,71,98,89,68,0.00,40.00,15,5,0,0.00
2012-7-12,88,79,73,75,73,72,98,84,60,0.00,40.00,13,5,0,0.00
2012-7-13,89,81,74,79,74,72,97,81,56,0.00,40.00,12,6,0,0.68
2012-7-14,88,80,73,77,74,72,97,82,64,0.00,40.00,13,6,0,0.00
2012-7-15,89,78,73,76,74,70,97,85,54,0.00,40.00,12,5,0,0.00
2012-7-16,84,77,73,76,74,71,98,90,72,0.00,40.00,11,5,0,2.38
2012-7-17,86,77,72,77,74,71,98,89,67,0.00,40.00,10,6,0,0.71
2012-7-18,89,79,72,77,74,71,98,85,61,0.00,40.00,9,4,0,0.00
2012-7-19,93,82,73,79,74,68,97,79,54,0.00,40.00,10,5,0,0.00
2012-7-20,94,84,74,77,73,67,97,72,41,0.00,40.00,35,5,0,0.00
2012-7-21,94,83,76,79,75,70,97,78,45,0.00,40.00,13,6,0,0.00
2012-7-22,88,78,73,80,76,73,98,93,73,0.00,40.00,16,6,0,0.90
2012-7-23,89,76,72,78,74,69,98,92,69,0.00,40.00,22,5,0,1.62
2012-7-24,89,79,73,79,76,71,98,88,67,0.00,40.00,18,4,0,0.68
2012-7-25,93,83,75,79,76,74,99,80,55,0.00,40.00,10,6,0,0.00
2012-7-26,94,83,75,78,74,70,98,78,47,0.00,40.00,9,6,0,0.00
2012-7-27,94,82,73,77,74,71,97,78,47,0.00,40.00,14,5,0,0.00
2012-7-28,94,83,74,78,74,68,98,76,43,0.00,40.00,11,4,0,0.00
2012-7-29,94,83,74,77,74,71,95,76,46,0.00,40.00,10,5,0,0.00
2012-7-30,95,82,75,77,74,70,96,77,45,0.00,40.00,15,6,0,0.00
2012-7-31,94,82,73,76,73,68,94,75,45,0.00,40.00,14,6,0,0.00
2012-8-1,93,82,73,77,74,70,96,80,47,0.00,40.00,12,6,0,0.00
2012-8-2,95,84,73,77,74,69,97,74,44,0.00,40.00,8,5,0,0.00
2012-8-3,94,80,72,75,72,69,96,78,49,0.00,40.00,16,5,0,0.08
2012-8-4,95,82,73,78,74,70,98,79,46,0.00,40.00,10,6,0,0.00
2012-8-5,91,82,76,78,75,73,94,81,57,0.00,40.00,27,7,0,0.00
2012-8-6,92,82,75,78,75,71,97,82,51,0.00,40.00,15,7,0,0.08
2012-8-7,94,82,72,79,74,69,98,79,43,0.00,40.00,12,6,0,0.00
2012-8-8,96,84,75,78,74,69,96,74,47,0.00,40.00,13,5,0,0.00
2012-8-9,95,82,72,78,73,69,94,76,46,0.00,40.00,11,5,0,1.53
2012-8-10,92,79,73,77,74,71,98,85,53,0.00,40.00,10,4,0,1.72
2012-8-11,89,80,74,77,75,73,97,85,65,0.00,40.00,9,5,0,0.00
2012-8-12,89,77,72,78,73,-100,98,92,65,0.00,40.00,15,4,0,0.25
2012-8-13,91,81,73,78,75,72,98,84,58,0.00,40.00,8,4,0,0.22
2012-8-14,93,80,73,78,74,72,97,83,53,0.00,40.00,20,4,0,0.03
2012-8-15,93,81,72,78,74,71,98,81,53,0.00,40.00,11,4,0,0.00
2012-8-16,92,81,73,78,75,72,96,81,59,0.00,40.00,15,4,0,0.00
2012-8-17,93,81,75,79,75,72,96,83,54,0.00,40.00,12,5,0,0.11
2012-8-18,88,79,75,77,75,71,97,86,65,0.00,40.00,12,6,0,0.00
2012-8-19,93,83,75,79,75,72,95,79,53,0.00,40.00,12,7,0,0.08
2012-8-20,94,84,75,78,75,69,96,76,44,0.00,40.00,14,7,0,0.00
2012-8-21,93,80,71,78,73,70,97,81,49,0.00,40.00,15,8,0,0.31
2012-8-22,90,76,71,76,72,71,98,90,57,0.00,40.00,16,6,0,0.20
2012-8-23,92,80,71,74,72,69,98,78,48,0.00,40.00,12,4,0,0.00
2012-8-24,92,81,74,77,74,71,96,79,51,0.00,40.00,12,7,0,0.00
2012-8-25,88,79,71,75,71,67,95,77,53,0.00,40.00,16,9,0,0.00
2012-8-26,84,78,75,78,76,74,97,92,80,0.00,40.00,17,12,0,1.17
2012-8-27,82,78,74,78,76,74,98,93,85,0.00,40.00,19,15,0,4.09
2012-8-28,89,80,75,81,77,74,97,89,70,0.00,40.00,15,10,0,0.16
2012-8-29,91,80,74,79,76,74,98,88,59,0.00,40.00,13,6,0,0.03
2012-8-30,91,82,74,78,75,73,98,81,55,0.00,40.00,9,4,0,0.00
2012-8-31,91,82,75,79,75,73,98,80,56,0.00,40.00,12,5,0,0.00
2012-9-1,91,82,76,78,74,69,99,79,49,0.00,40.00,12,6,0,0.00
2012-9-2,89,80,69,74,69,62,98,73,40,0.00,40.00,11,6,0,0.00
2012-9-3,89,80,68,74,70,65,98,75,45,0.00,40.00,8,4,0,0.00
2012-9-4,93,81,72,76,72,68,97,76,43,0.00,40.00,14,5,0,0.00
2012-9-5,91,78,72,76,72,70,96,84,54,0.00,40.00,13,6,0,0.30
2012-9-6,91,78,71,76,72,70,97,85,55,0.00,40.00,16,6,0,0.00
2012-9-7,92,79,71,76,73,70,98,82,53,0.00,40.00,11,5,0,0.00
2012-9-8,92,82,73,77,73,69,98,77,51,0.00,40.00,11,6,0,0.00
2012-9-9,84,78,75,78,76,74,97,92,82,0.00,40.00,14,8,0,0.22
2012-9-10,89,78,72,80,75,70,99,92,67,0.00,40.00,10,4,0,0.22
2012-9-11,88,79,74,76,73,70,99,83,64,0.00,40.00,15,8,0,0.00
2012-9-12,86,78,72,75,72,69,95,82,67,0.00,40.00,18,9,0,0.00
2012-9-13,89,79,73,75,73,71,95,81,55,0.00,40.00,14,8,0,0.00
2012-9-14,88,77,74,77,74,73,97,91,66,0.00,40.00,13,7,0,0.06
2012-9-15,85,77,73,77,74,72,98,89,68,0.00,40.00,14,6,0,0.00
2012-9-16,88,79,74,76,74,72,98,85,64,0.00,40.00,14,6,0,0.00
2012-9-17,90,79,72,76,73,71,97,83,55,0.00,40.00,14,6,0,0.00
2012-9-18,89,76,72,78,74,71,98,93,66,0.00,40.00,13,7,0,0.63
2012-9-19,90,77,73,77,74,72,99,89,61,0.00,40.00,10,6,0,0.03
2012-9-20,89,78,72,76,73,71,97,85,60,0.00,40.00,12,4,0,0.14
2012-9-21,88,76,71,76,73,70,99,90,64,0.00,40.00,13,4,0,0.69
2012-9-22,85,77,72,77,73,71,98,90,69,0.00,40.00,7,4,0,0.00
2012-9-23,90,79,72,76,70,-100,99,79,44,0.00,40.00,9,4,0,0.00
2012-9-24,84,76,70,71,67,57,97,75,40,0.00,40.00,9,6,0,0.00
2012-9-25,85,75,69,70,67,63,91,75,55,0.00,40.00,7,5,0,0.00
2012-9-26,88,75,68,76,72,67,99,90,62,0.00,40.00,14,4,0,0.06
2012-9-27,90,79,72,77,72,68,99,81,48,0.00,40.00,11,5,0,0.00
2012-9-28,91,79,72,77,73,68,99,82,47,0.00,40.00,14,5,0,0.00
2012-9-29,91,79,72,77,74,71,99,84,53,0.00,40.00,11,4,0,0.00
2012-9-30,92,80,71,76,73,70,98,82,55,0.00,40.00,9,4,0,0.00
2012-10-1,90,80,74,77,74,71,97,83,59,0.00,40.00,13,6,0,0.00
2012-10-2,86,77,72,77,74,71,98,92,72,0.00,40.00,17,8,0,2.16
2012-10-3,91,78,72,78,74,71,99,91,59,0.00,40.00,12,6,0,0.22
2012-10-4,91,77,72,80,74,71,100,92,62,0.00,40.00,14,5,0,0.06
2012-10-5,91,78,72,78,74,71,99,90,61,0.00,40.00,13,5,0,0.17
2012-10-6,89,78,72,78,74,71,99,88,63,0.00,40.00,14,4,0,0.00
2012-10-7,88,76,70,75,72,70,99,88,61,0.00,40.00,16,5,0,0.00
2012-10-8,87,77,72,78,74,71,98,90,68,0.00,40.00,9,4,0,0.38
2012-10-9,88,77,71,76,73,70,99,89,62,0.00,40.00,11,5,0,0.00
2012-10-10,87,76,70,73,70,67,97,82,55,0.00,40.00,9,6,0,0.00
2012-10-11,85,74,66,69,68,65,97,80,56,0.00,40.00,13,7,0,0.00
2012-10-12,85,74,66,69,65,61,95,76,46,0.00,40.00,12,8,0,0.00
2012-10-13,84,75,67,71,67,64,94,78,53,0.00,40.00,16,9,0,0.00
2012-10-14,87,77,70,73,70,68,94,80,56,0.00,40.00,12,8,0,0.00
2012-10-15,88,78,71,76,73,70,97,85,58,0.00,40.00,10,5,0,0.03
2012-10-16,87,76,69,72,69,68,98,81,56,0.00,40.00,8,5,0,0.00
2012-10-17,82,74,68,74,70,66,96,87,72,0.00,40.00,8,4,0,0.00
2012-10-18,88,76,68,74,72,68,99,86,60,0.00,40.00,7,4,0,0.35
2012-10-19,88,77,67,74,69,66,99,80,48,0.00,40.00,6,4,0,0.00
2012-10-20,84,74,64,72,62,53,99,68,40,0.00,40.00,11,5,0,0.00
2012-10-21,83,70,59,62,56,52,86,64,38,0.00,40.00,10,7,0,0.00
2012-10-22,85,74,65,67,64,61,90,72,49,0.00,40.00,17,9,0,0.00
2012-10-23,81,73,66,71,66,63,90,78,64,0.00,40.00,13,8,0,0.27
2012-10-24,87,76,68,73,69,65,96,79,51,0.00,40.00,15,9,0,0.00
2012-10-25,82,75,71,75,71,68,97,89,71,0.00,40.00,16,9,0,0.00
2012-10-26,84,75,69,72,69,65,96,81,54,0.00,40.00,20,12,0,0.00
2012-10-27,75,70,66,66,63,61,89,77,67,0.00,40.00,15,12,0,0.00
2012-10-28,77,68,61,66,61,54,95,78,55,0.00,40.00,15,10,0,0.00
2012-10-29,70,59,51,54,45,35,84,61,28,0.00,40.00,16,11,0,0.00
2012-10-30,69,57,46,50,42,34,86,58,36,0.00,40.00,16,9,0,0.00
2012-10-31,74,60,47,54,49,42,96,70,42,0.00,40.00,11,6,0,0.00
2012-11-1,78,66,55,64,59,52,96,81,57,0.00,40.00,10,6,0,0.00
2012-11-2,79,65,53,61,54,47,99,72,33,0.00,40.00,7,5,0,0.00
2012-11-3,82,67,54,66,59,51,98,77,47,0.00,40.00,7,4,0,0.00
2012-11-4,83,69,57,65,60,56,98,76,41,0.00,40.00,6,4,0,0.00
2012-11-5,79,68,61,69,63,59,99,85,56,0.00,40.00,8,4,0,0.00
2012-11-6,75,65,58,67,62,57,98,90,74,0.00,40.00,9,5,0,0.03
2012-11-7,68,58,48,57,50,46,98,78,48,0.00,40.00,14,8,0,0.03
2012-11-8,68,57,48,50,44,40,95,65,36,0.00,40.00,12,7,0,0.00
2012-11-9,74,60,48,52,48,44,87,66,35,0.00,40.00,12,7,0,0.00
2012-11-10,76,64,55,57,54,51,88,72,46,0.00,40.00,12,8,0,0.00
2012-11-11,77,67,58,66,61,57,95,82,59,0.00,40.00,14,7,0,0.00
2012-11-12,82,70,61,69,64,60,97,84,58,0.00,40.00,11,6,0,0.00
2012-11-13,79,70,62,69,65,62,99,85,59,0.00,40.00,8,5,0,0.00
2012-11-14,79,68,64,69,64,-100,99,89,64,0.00,40.00,9,6,0,0.00
2012-11-15,75,66,61,66,64,60,99,93,75,0.00,40.00,9,6,0,0.00
2012-11-16,69,62,59,60,59,57,96,88,73,0.00,40.00,11,7,0,0.00
2012-11-17,79,68,60,64,62,58,97,82,57,0.00,40.00,13,8,0,0.00
2012-11-18,75,65,56,63,60,54,97,85,61,0.00,40.00,12,9,0,0.00
2012-11-19,60,57,53,56,54,52,97,92,86,0.00,40.00,10,7,0,0.00
2012-11-20,74,63,56,60,57,54,95,82,60,0.00,40.00,11,7,0,0.00
2012-11-21,72,61,52,57,51,45,95,72,41,0.00,40.00,13,7,0,0.00
2012-11-22,72,59,49,50,44,35,95,62,32,0.00,40.00,15,8,0,0.00
2012-11-23,73,59,49,45,40,29,82,53,19,0.00,40.00,11,6,0,0.00
2012-11-24,77,60,48,59,52,45,97,76,52,0.00,40.00,10,6,0,0.00
2012-11-25,72,57,45,48,43,37,96,65,28,0.00,40.00,7,5,0,0.00
2012-11-26,78,63,50,62,56,49,95,78,48,0.00,40.00,7,5,0,0.00
2012-11-27,79,68,59,65,62,59,98,83,56,0.00,40.00,10,4,0,0.08
2012-11-28,74,63,56,62,59,54,99,88,65,0.00,40.00,12,7,0,0.00
2012-11-29,77,63,53,61,57,52,98,81,57,0.00,40.00,14,8,0,0.00
2012-11-30,79,66,57,61,57,54,94,75,44,0.00,40.00,13,8,0,0.00
2012-12-1,79,66,56,64,60,54,97,83,52,0.00,40.00,14,8,0,0.00
2012-12-2,81,69,58,66,62,58,98,81,50,0.00,40.00,11,6,0,0.00
2012-12-3,80,70,61,67,61,56,96,78,45,0.00,40.00,11,6,0,0.00
2012-12-4,77,66,57,62,58,55,97,80,50,0.00,40.00,10,6,0,0.00
2012-12-5,80,68,59,66,61,57,96,79,49,0.00,40.00,7,5,0,0.00
2012-12-6,79,68,61,66,61,-100,98,83,58,0.00,40.00,9,6,0,0.00
2012-12-7,78,67,60,68,64,60,99,91,66,0.00,40.00,7,5,0,0.00
2012-12-8,81,70,64,71,67,64,99,90,64,0.00,40.00,8,4,0,0.00
2012-12-9,83,72,66,72,68,66,99,88,59,0.00,40.00,6,3,0,0.00
2012-12-10,83,73,66,74,70,65,99,90,72,0.00,40.00,12,6,0,0.30
2012-12-11,81,73,68,75,71,67,99,94,80,0.00,40.00,8,5,0,2.16
2012-12-12,82,73,68,75,71,68,99,95,73,0.00,40.00,10,5,0,0.03
2012-12-13,71,64,56,71,62,54,99,93,80,0.00,40.00,13,8,0,0.00
2012-12-14,73,62,57,63,59,55,98,89,70,0.00,40.00,12,9,0,0.00
2012-12-15,78,65,57,67,61,57,99,88,60,0.00,40.00,8,5,0,0.00
2012-12-16,79,68,59,68,64,58,99,88,63,0.00,40.00,7,4,0,0.00
2012-12-17,82,70,63,70,66,62,99,86,57,0.00,40.00,11,5,0,0.00
2012-12-18,82,70,57,72,65,53,99,85,54,0.00,40.00,13,7,0,0.00
2012-12-19,79,62,50,58,53,46,96,74,31,0.00,40.00,7,5,0,0.00
2012-12-20,82,70,59,67,63,57,97,80,52,0.00,40.00,13,8,0,0.00
2012-12-21,71,57,45,67,45,32,98,66,32,0.00,40.00,16,11,0,0.83
2012-12-22,63,49,40,39,28,21,81,48,20,0.00,40.00,14,8,0,0.00
2012-12-23,70,52,37,53,43,32,91,72,35,0.00,40.00,7,4,0,0.00
2012-12-24,70,59,48,61,54,47,97,86,61,0.00,40.00,10,3,0,0.00
2012-12-25,75,65,53,62,59,53,99,82,56,0.00,40.00,11,5,0,0.00
2012-12-26,80,66,52,70,62,50,96,87,71,0.00,40.00,18,10,0,0.08
2012-12-27,65,52,40,50,44,39,96,78,41,0.00,40.00,8,5,0,0.00
2012-12-28,73,59,41,65,53,40,98,83,54,0.00,40.00,8,5,0,0.03
2012-12-29,77,68,52,73,65,50,98,90,66,0.00,40.00,13,10,0,0.33
2012-12-30,57,49,40,50,42,36,94,78,62,0.00,40.00,13,9,0,0.00
2012-12-31,74,59,47,58,52,45,96,80,52,0.00,40.00,12,6,0,0.00
2013-1-1,78,64,50,62,58,49,98,82,55,0.00,40.00,9,4,0,0.00